Location: Lewisville
(33.0462°N, 96.9942°W)
Time: 13:28:20
(UTC-06:00)

ISS - Pass Details

Date: 01 June 2020
Orbit: 418 x 421 km, 51.6° (Epoch: 26 January)

Event Time Altitude Azimuth Distance (km) Brightness Sun altitude
Rises 22:23:18 0° 317° (NW) 2,365 1.7 -19.6°
Reaches altitude 10° 22:25:25 10° 321° (NW) 1,497 0.3 -19.9°
Enters shadow 22:28:40 62° 34° (NE) 474 -3.6 -20.4°
